Location: Cartersville (historical)
(42.9944°N, 93.0869°W)
Time: 06:43:58
(UTC+00:00)

ARIANE 6 FM1 Upper Stage - Pass Details

Date: 11 October 2024
Orbit: 560 x 596 km, 62.0° (Epoch: 04 November)

Event Time Altitude Azimuth Distance (km) Brightness Sun altitude
Rises 02:13:05 0° 331° (NNW) 2,828 6.9 -29.1°
Reaches altitude 10° 02:16:19 10° 357° (N) 1,931 5.6 -29.6°
Enters shadow 02:16:36 11° 360° (N) 1,874 5.5 -29.7°
